Regional Weather Roundup
Issued by NWS

Home | Current Version | Previous Version | Graphics & Text | Print | Product List | Glossary On
Versions: 1 2 3 4 5 6 7 8 9 10 11 12 13 14 15 16 17 18 19 20 21 22 23 24 25 26 27 28
000
ASUS45 KTFX 250010
RWRMT
MONTANA REGIONAL WEATHER ROUNDUP
NATIONAL WEATHER SERVICE GREAT FALLS MT
600 PM MDT MON JUL 24 2017

NOTE: "FAIR" INDICATES FEW OR NO CLOUDS BELOW 12000 FEET WITH NO
SIGNIFICANT WEATHER AND/OR OBSTRUCTIONS TO VISIBILITY.

MTZ001>007-043-250100-
WEST OF THE DIVIDE

CITY           SKY/WX    TMP DP  RH WIND       PRES   REMARKS
KALISPELL      SUNNY     89  31  12 VRB7      29.84S
MISSOULA       SUNNY     91  21   8 N13G24    29.87F
BUTTE          CLOUDY    84  32  15 NW12      30.01S
MULLAN PASS    SUNNY     73  32  22 NW3       30.11S
ANACONDA         N/A     88  30  12 W16G22    29.97S
DEER LODGE       N/A     88  39  18 NW14G20   29.96S
EUREKA           N/A     82  27  13 MISG      29.87S
HAMILTON         N/A     88  36  15 W10G16    29.90R
LIBBY            N/A     88  25  10 W7        29.86S
PLAINS           N/A     89  40  18 SW9       29.87F
$$

MTZ008-052>055-250100-
SOUTHWEST MONTANA

CITY           SKY/WX    TMP DP  RH WIND       PRES   REMARKS
BOZEMAN        MOSUNNY   90  36  14 W8        29.91F
DILLON         CLOUDY    78  39  24 SW16      30.00R
W YELLOWSTONE  CLOUDY    66  50  55 SE7       30.19F
ENNIS          SUNNY     81  39  22 S17G25    30.06F
THREE FORKS      N/A     92  41  17 W10       29.90S
$$

MTZ009-010-012-014-046-048-049-054-250100-
EAST SLOPES AND CENTRAL MONTANA

CITY           SKY/WX    TMP DP  RH WIND       PRES   REMARKS
CUT BANK       SUNNY     81  36  19 VRB6      29.90S
GREAT FALLS    SUNNY     85  44  23 E13       29.86S
HELENA         MOSUNNY   93  36  13 W18G26    29.85S
CHOTEAU          N/A     84  41  21 E12       29.89S
$$

MTZ011-013-016-021-045-047-050-051-250100-
NORTH CENTRAL MONTANA

CITY           SKY/WX    TMP DP  RH WIND       PRES   REMARKS
HAVRE          SUNNY     83  39  21 N9        29.85F
LEWISTOWN      CLOUDY    84  46  26 E14G21    29.90F
N BAR RANCH      N/A     81  45  28 E7G14     29.97S
CHINOOK          N/A     82  41  23 NW7       29.84F
WINIFRED         N/A     84  44  24 E8        29.87F
$$

MTZ017>020-022>027-061-062-250100-
NORTHEAST MONTANA

CITY           SKY/WX    TMP DP  RH WIND       PRES   REMARKS
GLASGOW        CLOUDY    84  42  22 W9        29.84S
JORDAN           N/A     89  45  21 N10       29.85S
SIDNEY         PTSUNNY   90  52  27 N8G17     29.79S
WOLF POINT     SUNNY     90  43  19 W12       29.81R
MALTA          SUNNY     84  45  24 NE7       29.83F
PLENTYWOOD       N/A     82  43  24 NW13G18   29.83S
POPLAR           N/A     88  46  23 N6        29.81S
SCOBEY           N/A     83  44  25 W3        29.86
$$

MTZ028>42-056>058-250100-
SOUTHCENTRAL AND SOUTHEAST MONTANA

CITY           SKY/WX    TMP DP  RH WIND       PRES   REMARKS
BAKER          SUNNY     95  45  17 NW17      29.83R HX  91
BILLINGS       PTSUNNY   90  45  21 NE12      29.86F
LIVINGSTON     MOSUNNY   91  36  14 NW17G25   29.92R
MILES CITY     SUNNY     93  44  18 N10       29.83S
BIG TIMBER     SUNNY     90  34  13 NW18G26   29.92S
EKALAKA          N/A     92  44  18 NW12      29.86
FORSYTH          N/A     90  46  22 NE8G17    29.83S
HARLOWTON        N/A     90  32  12 MISG      29.89F
LAUREL           N/A     89  48  24 N3        29.87R
$$

REGIONAL REPORTS...DAKOTAS

CITY           SKY/WX    TMP DP  RH WIND       PRES   REMARKS
WILLISTON      SUNNY     91  52  26 N15       29.78S
MINOT          SUNNY     95  60  31 SE18      29.71F HX  95
DICKINSON      SUNNY     91  57  31 S10       29.75S
BEACH            N/A     91  48  22 N16       29.85R
CROSBY           N/A     82  48  30 N12       29.81R
TIOGA            N/A     84  52  32 N15       29.81R
WATFORD CITY     N/A     90  55  31 N14G21    29.76R
BISMARCK       SUNNY     87  67  51 S16       29.80R HX  90
GRAND FORKS    CLOUDY    79  66  64 S17G26    29.85F
FARGO          CLOUDY    78  63  59 SE13G28   29.88F
BUFFALO SD       N/A     97  49  19 SE5       29.74F HX  94
RAPID CITY     SUNNY     97  47  18 E7        29.82F HX  93
$$

REGIONAL REPORTS...WYOMING/IDAHO/WASHINGTON

CITY           SKY/WX    TMP DP  RH WIND       PRES   REMARKS
GILLETTE       SUNNY     97  36  12 N16       29.89S HX  92
SHERIDAN       SUNNY     96  40  14 VRB3      29.88F HX  92
BUFFALO WY     SUNNY     91  39  16 N12       29.96F
CODY           SUNNY     91  40  16 VRB5      29.94S
YELLOWSTONE LA   N/A     58  45  62 NW12G26   30.32R
IDAHO FALLS    PTSUNNY   91  46  21 N12       29.98S
BOISE          PTSUNNY   98  44  15 W12       29.81F HX  94
SPOKANE        MOSUNNY   86  28  12 W5        29.92F
$$

REGIONAL REPORTS...ALBERTA

CITY           SKY/WX    TMP DP  RH WIND       PRES   REMARKS
EDMONTON       PTSUNNY   55  54  94 W13G24    29.92R
CALGARY        MOSUNNY   68  43  40 N22       29.98R
LETHBRIDGE     MOSUNNY   75  41  29 NE15      29.90S
MEDICINE HAT   MOSUNNY   77  34  20 NW13G21   29.89S
WATERTON GATE    N/A     75  43  31 E8          N/A
MILK RIVER       N/A     73  45  35 NE8         N/A
$$

REGIONAL REPORTS...SASKATCHEWAN

CITY           SKY/WX    TMP DP  RH WIND       PRES   REMARKS
SWIFT CURRENT  SUNNY     73  34  23 W24G33    29.86R
REGINA         MOSUNNY   77  41  27 W18       29.81S
SASKATOON      PTSUNNY   68  46  45 W28G33    29.73S
ROCKGLEN         N/A     77  39  25 NW8         N/A
ASSINIBOIA       N/A     55  54  94 NW28G38     N/A
$$




USA.gov is the U.S. government's official web portal to all federal, state and local government web resources and services.